Wind_Speed
34 33 32 31 30 30 29 27 26 25 25 24 23 20 19 19 21 21 22 24 24 22 21 20 18 16 16 16 16 18 19 21 22 21 20 19 18 18 18 16 15 14 12
37 36 35 33 32 32 31 30 30 29 29 28 28 26 24 22 23 23 23 25 27 27 26 25 23 21 19 19 19 20 21 22 22 23 23 22 21 20 20 19 17 15 14
38 37 37 36 34 34 33 32 33 33 33 32 32 31 31 29 27 26 26 26 28 29 30 29 28 26 24 22 22 23 24 24 24 24 24 23 23 23 22 21 19 17 16
37 37 37 36 36 36 36 36 36 37 38 37 37 36 36 35 34 32 30 30 31 31 32 32 32 31 29 27 25 25 26 27 27 26 25 25 24 24 24 22 21 19 17
38 38 38 38 39 40 39 39 39 40 40 40 40 40 39 39 38 37 36 35 35 34 35 36 35 35 33 30 28 27 27 27 27 27 26 26 26 25 25 23 21 20 18
40 40 41 42 43 43 42 41 41 41 41 40 41 40 39 39 40 39 38 38 38 37 38 38 37 37 36 33 31 29 28 28 28 28 28 28 28 27 27 26 24 22 20
41 41 41 42 42 43 43 43 42 41 40 40 41 40 38 37 37 38 39 39 39 40 40 41 40 38 38 36 33 31 29 29 30 30 30 29 29 29 29 28 27 26 24
39 39 39 40 40 41 41 41 42 41 41 41 42 42 40 38 38 39 40 40 40 41 40 41 41 40 39 37 34 31 29 30 31 31 30 30 29 29 30 30 30 29 28
36 36 37 38 39 40 41 41 42 42 42 42 43 43 42 39 38 37 38 38 37 36 35 36 37 39 38 36 33 31 29 31 31 30 29 29 29 29 29 30 31 31 30
37 38 38 39 40 41 41 42 42 42 42 42 43 43 43 41 39 37 37 36 33 31 31 32 33 35 35 34 32 30 30 31 31 29 27 27 27 27 28 29 30 31 30
40 41 41 42 42 42 42 43 43 43 43 43 43 44 44 43 41 40 37 35 33 31 29 29 31 32 33 32 31 32 32 32 31 28 26 26 26 26 26 27 28 28 29
41 41 42 42 42 43 43 44 45 44 44 44 45 45 45 44 43 41 37 35 34 33 31 29 30 31 32 33 33 33 34 33 31 29 26 25 25 25 25 26 27 27 28
40 40 40 41 41 42 43 44 44 45 45 46 46 45 45 44 42 39 37 35 33 31 31 30 30 30 33 34 34 34 34 32 30 28 26 25 25 25 25 26 27 28 28
42 41 41 41 41 42 43 43 44 45 46 46 45 43 42 40 38 36 34 32 31 31 30 29 30 32 33 34 34 33 31 29 29 29 28 27 27 27 28 29 30 30 29
43 42 42 42 42 43 43 43 42 42 42 41 40 38 36 33 31 29 30 31 31 32 32 32 31 31 32 31 30 29 28 28 29 29 28 28 28 28 29 29 29 29 29
41 41 42 42 42 41 40 39 37 35 34 32 31 30 28 27 26 26 28 29 30 31 32 31 30 29 28 26 25 25 25 26 28 28 29 29 29 28 29 29 29 30 30
38 39 39 39 38 36 34 32 29 27 26 24 23 23 23 23 25 26 27 28 29 29 29 28 28 27 26 24 23 23 25 26 27 28 29 30 30 31 31 32 33 33 33
34 34 33 33 32 30 28 25 24 23 22 21 21 21 22 23 24 24 23 22 22 21 20 19 20 20 21 21 22 23 25 27 28 29 30 31 32 33 34 35 36 35 35
29 29 29 28 27 26 23 21 21 21 21 22 21 20 19 19 18 18 17 16 15 14 14 15 16 17 19 21 23 25 26 28 29 31 32 32 33 34 35 36 37 37 37
26 25 25 24 22 20 19 19 20 22 23 22 22 19 17 15 14 14 14 14 14 14 15 16 17 18 20 22 24 25 27 29 30 32 33 34 35 36 37 38 38 39 40
23 23 22 20 18 17 18 19 20 22 22 21 19 17 15 14 14 13 13 13 14 15 16 18 19 20 22 24 26 27 29 31 32 34 34 36 37 38 39 40 40 41 41
22 21 19 17 15 15 15 17 18 19 19 18 17 15 14 13 12 12 12 13 14 15 17 18 20 21 23 24 26 27 29 30 31 33 34 35 37 38 39 40 41 42 42
21 19 17 14 12 11 14 16 17 16 16 15 14 13 12 12 12 13 13 14 14 15 16 17 19 21 22 22 23 24 25 27 28 30 31 33 35 36 38 39 40 41 42
20 18 15 13 11 10 11 12 13 14 14 14 13 12 12 12 12 12 12 12 12 13 14 14 15 16 17 18 19 21 24 26 29 31 33 34 36 37 38 38 39 40 41
18 17 16 15 13 12 11 11 12 13 12 12 12 11 10 10 10 10 10 11 12 12 12 11 12 13 16 18 21 24 27 29 31 33 35 36 37 38 38 38 38 38 38
18 17 16 16 16 15 13 12 12 13 13 12 11 10 10 9 9 10 10 9 9 8 9 10 12 15 18 21 24 26 28 30 32 33 34 34 34 34 34 35 35 35 35
Wind_Direction
289 289 288 287 287 288 287 286 283 282 284 285 287 290 290 288 286 282 275 271 270 271 274 278 284 289 293 294 292 288 281 275 272 272 271 271 274 277 277 274 270 269 268
285 285 285 284 282 282 282 282 281 281 281 282 282 281 281 280 278 275 272 268 266 266 267 270 274 279 284 288 290 289 287 282 277 273 271 270 271 274 275 272 266 263 265
279 278 277 276 276 277 279 281 280 280 280 280 280 279 277 275 273 270 268 267 266 266 266 265 268 271 276 281 285 286 286 284 281 277 272 269 268 269 272 272 266 259 260
279 278 278 277 276 277 279 280 281 281 280 280 280 279 278 277 275 272 270 268 266 267 267 265 265 266 269 275 280 284 286 286 283 279 274 269 266 265 267 269 267 261 259
278 276 276 277 278 280 281 281 281 281 280 281 281 280 278 277 275 274 272 270 268 267 266 265 264 263 265 269 275 281 284 285 282 279 276 271 267 263 263 264 265 264 263
278 276 274 273 274 277 279 280 281 281 281 282 282 282 280 277 275 275 273 271 270 268 266 264 264 263 263 265 271 276 280 282 281 279 275 272 268 264 261 260 262 263 265
277 276 274 273 273 274 275 276 278 279 280 281 282 282 281 281 279 276 274 272 270 268 266 263 261 261 260 261 266 271 277 280 282 278 273 270 268 265 262 261 261 263 266
278 277 277 276 276 276 277 277 277 279 280 280 281 282 282 282 281 277 275 274 271 269 266 262 258 257 257 257 261 266 272 279 281 278 271 267 265 264 262 262 262 264 267
282 280 279 279 279 279 279 279 279 279 279 279 279 280 281 280 280 277 276 275 272 267 263 260 258 254 253 253 256 261 269 278 281 276 267 263 263 262 262 261 261 263 266
284 284 283 283 283 282 282 280 279 279 278 278 277 278 279 279 280 277 276 274 267 263 261 257 254 252 250 249 252 257 267 277 280 272 264 260 261 261 261 261 261 262 265
282 283 283 283 282 282 282 281 280 280 279 278 277 276 276 276 276 277 275 269 264 259 256 253 251 249 247 246 248 253 263 274 273 267 262 259 258 258 259 260 262 263 265
281 281 282 282 282 281 281 280 280 280 279 278 277 276 275 274 272 273 272 269 264 257 255 252 249 247 245 244 247 253 262 269 266 262 259 256 254 254 256 258 259 262 264
282 282 283 284 283 282 281 280 279 279 278 278 277 275 274 272 270 269 268 266 262 257 255 252 248 245 243 244 247 254 260 263 260 258 257 255 254 255 256 257 257 259 262
286 286 286 287 286 285 283 281 278 276 276 276 274 274 273 270 268 265 264 262 258 257 255 252 248 246 244 244 248 253 256 256 256 256 256 256 257 256 257 258 258 259 261
288 288 287 287 287 286 284 280 277 275 274 273 272 270 269 267 264 261 259 257 256 257 255 254 250 246 244 245 248 251 253 253 253 254 256 257 258 257 258 259 258 258 260
290 289 287 287 286 284 282 280 276 273 269 268 266 265 262 259 255 253 252 250 251 253 254 251 246 243 241 244 248 251 252 253 254 256 257 258 257 257 256 256 256 256 259
291 289 288 287 285 283 281 277 271 265 260 257 254 250 246 242 239 239 242 245 249 250 248 246 244 244 244 244 247 253 257 258 259 259 260 259 259 258 257 258 259 259 260
294 293 292 290 286 282 277 269 260 249 241 236 231 226 225 225 226 232 238 240 242 242 243 243 247 249 251 252 255 258 260 262 263 263 262 260 259 259 259 261 261 261 260
299 299 296 294 286 279 269 255 241 232 225 221 218 216 221 228 233 238 244 247 247 247 248 250 253 256 258 260 259 260 261 262 263 263 263 262 261 260 260 261 262 262 262
302 302 301 297 285 272 258 241 228 224 223 223 225 229 237 244 248 251 251 252 254 257 261 263 264 264 264 264 264 264 264 264 264 264 265 265 264 264 263 263 263 263 262
303 305 304 298 281 265 251 237 229 224 227 231 234 237 243 252 256 255 253 253 257 262 265 266 266 266 267 267 268 268 268 268 267 267 267 267 268 268 267 266 265 264 263
301 304 304 300 283 262 244 236 232 231 235 238 239 240 245 249 251 252 254 256 259 261 264 266 268 270 271 272 273 274 274 274 275 275 276 275 273 271 270 268 266 265 262
298 301 303 305 289 267 245 237 234 238 241 239 237 243 245 246 250 253 256 260 262 263 265 269 272 273 275 276 278 280 281 282 283 283 282 280 277 275 273 270 268 265 263
294 296 297 300 297 284 260 245 240 241 241 239 240 242 243 245 250 254 255 257 260 264 267 271 272 274 278 282 286 290 292 291 290 288 286 284 281 278 275 272 268 265 263
286 288 290 290 289 284 272 254 245 239 239 239 240 238 238 241 246 251 254 257 260 262 266 268 274 284 291 295 298 299 298 296 295 293 291 289 285 281 276 272 268 265 263
275 277 282 283 281 276 266 253 243 236 233 231 230 229 231 236 244 249 251 251 250 255 266 280 294 301 306 308 308 307 306 305 303 301 298 295 292 287 280 274 268 263 261
Height
5893 5891 5890 5889 5887 5886 5885 5883 5882 5880 5880 5879 5878 5878 5878 5877 5877 5877 5877 5876 5876 5877 5877 5876 5876 5875 5875 5875 5875 5874 5874 5874 5873 5873 5872 5872 5872 5872 5871 5871 5871 5870 5871
5884 5882 5880 5880 5879 5877 5877 5876 5874 5873 5872 5872 5871 5871 5871 5871 5871 5871 5870 5870 5870 5870 5871 5871 5870 5870 5869 5870 5870 5870 5870 5869 5869 5868 5868 5868 5868 5868 5867 5867 5867 5867 5867
5873 5872 5870 5870 5869 5867 5867 5867 5866 5865 5864 5864 5863 5863 5863 5863 5863 5863 5863 5863 5862 5863 5863 5864 5864 5864 5864 5863 5863 5864 5864 5864 5864 5863 5863 5863 5862 5863 5863 5863 5863 5863 5863
5864 5863 5861 5860 5859 5858 5857 5857 5856 5856 5855 5855 5854 5853 5853 5853 5854 5854 5854 5854 5854 5854 5855 5856 5857 5857 5857 5857 5857 5857 5857 5857 5857 5857 5857 5857 5857 5857 5858 5858 5858 5859 5859
5855 5854 5853 5851 5850 5849 5848 5847 5846 5845 5845 5844 5844 5844 5844 5844 5843 5844 5844 5844 5844 5845 5846 5847 5848 5849 5850 5850 5850 5850 5850 5850 5850 5851 5851 5851 5851 5851 5852 5853 5854 5854 5855
5845 5844 5843 5842 5840 5839 5838 5837 5836 5835 5835 5834 5833 5833 5834 5833 5833 5834 5834 5834 5834 5835 5835 5837 5838 5840 5841 5842 5842 5842 5843 5843 5843 5844 5844 5844 5844 5845 5846 5847 5848 5849 5850
5835 5833 5832 5832 5831 5829 5828 5827 5827 5825 5825 5824 5823 5823 5823 5822 5822 5823 5822 5822 5823 5824 5825 5826 5828 5830 5832 5833 5834 5834 5835 5836 5836 5836 5836 5837 5837 5838 5839 5841 5842 5843 5844
5824 5823 5822 5821 5820 5819 5819 5818 5816 5815 5815 5814 5813 5811 5812 5814 5813 5812 5812 5811 5812 5813 5813 5815 5817 5819 5822 5824 5826 5826 5827 5828 5828 5828 5828 5829 5830 5831 5832 5833 5835 5837 5838
5815 5813 5812 5810 5809 5809 5808 5808 5806 5805 5805 5804 5802 5801 5800 5802 5803 5803 5801 5801 5801 5801 5802 5803 5806 5808 5811 5814 5817 5818 5820 5821 5820 5820 5820 5820 5822 5823 5824 5826 5828 5830 5831
5805 5803 5802 5801 5799 5798 5797 5797 5796 5795 5794 5794 5792 5791 5791 5791 5791 5792 5793 5791 5791 5791 5792 5793 5796 5798 5801 5805 5808 5810 5812 5813 5813 5812 5812 5813 5814 5816 5817 5819 5820 5822 5824
5795 5794 5792 5790 5789 5787 5786 5785 5785 5784 5783 5783 5782 5781 5780 5780 5780 5781 5782 5783 5782 5782 5784 5785 5787 5790 5793 5796 5799 5802 5804 5805 5805 5805 5805 5806 5807 5808 5810 5811 5813 5815 5816
5786 5783 5781 5779 5778 5777 5775 5774 5773 5772 5771 5770 5770 5769 5769 5769 5770 5770 5771 5772 5772 5774 5776 5777 5779 5781 5784 5788 5791 5793 5795 5797 5797 5798 5799 5800 5800 5801 5803 5804 5806 5807 5808
5774 5772 5770 5768 5766 5765 5764 5763 5762 5760 5759 5758 5758 5757 5757 5758 5759 5760 5761 5763 5764 5765 5767 5769 5770 5772 5775 5778 5781 5784 5787 5788 5789 5791 5792 5793 5794 5795 5796 5797 5798 5800 5801
5762 5760 5757 5756 5754 5753 5752 5750 5749 5748 5747 5746 5746 5746 5746 5747 5748 5750 5752 5753 5755 5757 5758 5759 5760 5762 5765 5769 5773 5776 5778 5780 5781 5783 5784 5786 5787 5788 5788 5789 5791 5792 5792
5749 5747 5745 5744 5742 5741 5739 5738 5737 5736 5735 5735 5735 5735 5736 5737 5739 5741 5743 5745 5747 5749 5750 5751 5752 5753 5756 5760 5764 5766 5769 5771 5773 5774 5776 5777 5778 5779 5780 5781 5782 5783 5783
5736 5735 5733 5731 5730 5728 5727 5726 5725 5725 5725 5725 5725 5726 5727 5729 5731 5733 5735 5737 5739 5741 5742 5742 5744 5746 5748 5751 5755 5757 5760 5762 5764 5766 5767 5767 5768 5769 5770 5771 5772 5772 5773
5725 5723 5721 5719 5718 5716 5716 5715 5715 5716 5717 5717 5718 5719 5720 5722 5724 5726 5728 5730 5731 5733 5734 5736 5737 5739 5741 5743 5746 5749 5751 5753 5755 5756 5757 5757 5758 5759 5760 5760 5761 5762 5762
5716 5713 5711 5709 5707 5706 5706 5706 5707 5708 5710 5711 5711 5712 5714 5716 5718 5720 5722 5723 5725 5726 5728 5729 5731 5732 5735 5737 5739 5741 5743 5744 5745 5746 5747 5748 5748 5748 5749 5749 5750 5750 5750
5709 5706 5703 5701 5699 5698 5698 5699 5700 5702 5703 5704 5705 5706 5708 5710 5712 5714 5716 5718 5720 5721 5722 5724 5726 5728 5729 5731 5732 5733 5735 5736 5737 5737 5738 5738 5738 5738 5738 5738 5738 5738 5738
5703 5700 5697 5694 5692 5691 5692 5693 5694 5696 5697 5698 5700 5701 5703 5705 5708 5710 5711 5713 5715 5716 5718 5719 5721 5722 5724 5725 5725 5726 5727 5728 5728 5728 5727 5727 5727 5727 5727 5726 5726 5725 5725
5698 5695 5692 5689 5687 5686 5687 5688 5689 5690 5691 5693 5695 5697 5700 5702 5704 5706 5707 5709 5710 5712 5713 5715 5715 5716 5717 5718 5719 5719 5719 5719 5718 5717 5717 5716 5715 5715 5714 5713 5713 5712 5712
5693 5691 5688 5686 5683 5682 5682 5683 5684 5686 5687 5689 5691 5693 5696 5698 5700 5701 5703 5704 5706 5707 5709 5709 5710 5711 5711 5711 5711 5711 5710 5710 5709 5708 5706 5705 5704 5702 5701 5700 5700 5699 5699
5688 5686 5684 5682 5680 5679 5679 5680 5681 5682 5684 5686 5688 5690 5692 5694 5695 5697 5698 5700 5701 5703 5704 5705 5705 5706 5705 5704 5704 5703 5702 5701 5699 5697 5696 5694 5692 5690 5689 5688 5687 5686 5686
5683 5682 5680 5679 5678 5677 5677 5677 5678 5679 5680 5682 5684 5686 5688 5690 5692 5693 5695 5696 5698 5699 5700 5700 5700 5700 5699 5698 5697 5695 5694 5692 5689 5687 5685 5682 5679 5677 5676 5675 5673 5673 5672
5678 5677 5676 5676 5675 5675 5675 5674 5675 5676 5678 5679 5681 5683 5685 5687 5689 5690 5692 5693 5694 5695 5695 5695 5695 5694 5693 5691 5689 5688 5685 5682 5679 5676 5672 5669 5666 5663 5662 5660 5659 5658 5658
5672 5671 5671 5672 5672 5672 5672 5671 5672 5673 5674 5676 5679 5681 5683 5684 5685 5687 5688 5689 5690 5691 5691 5690 5689 5688 5686 5684 5681 5679 5675 5671 5667 5664 5660 5657 5653 5651 5648 5647 5646 5645 5645